Regional Weather Roundup
Issued by NWS

Home | Current Version | Previous Version | Text Only | Print | Product List | Glossary Off
Versions: 1 2 3 4 5 6 7 8 9 10 11 12 13 14 15 16 17 18 19 20 21 22 23 24 25 26 27 28 29 30 31 32 33 34 35 36 37 38 39 40 41 42 43 44 45 46 47 48 49 50

000
ASUS43 KDTX 190101
RWRMI
MICHIGAN HOURLY REGIONAL WEATHER ROUNDUP
NATIONAL WEATHER SERVICE DETROIT/PONTIAC MI
900 PM EDT SAT APR 18 2015

NOTE: "FAIR" INDICATES FEW OR NO CLOUDS BELOW 12,000 FEET WITH NO
SIGNIFICANT WEATHER AND/OR OBSTRUCTION TO VISIBILITY.

MIZ047>049-052>055-059>063-066>070-074>076-081>083-190200-
SOUTHEAST LOWER MICHIGAN

CITY           SKY/WX    TMP DP  RH WIND       PRES   REMARKS
ADRIAN         MOCLDY    58  27  30 E10       30.09S
ALMA           PTCLDY    50  34  53 NE10      30.16S
ANN ARBOR      PTCLDY    58  16  19 NE8       30.11R
BAD AXE        CLEAR     42  32  67 NE6       30.20S
CARO           PTCLDY    46  30  53 CALM      30.18R
DETROIT CITY   PTCLDY    52  30  43 NE15      30.15R
DETROIT        PTCLDY    60  19  20 NE7       30.12R
FLINT          PTCLDY    54  24  31 NE10      30.16R
GROSSE ILE     PTCLDY    52  34  50 NE13      30.11R
HILLSDALE      MOCLDY    60  28  29 E13       30.07S
HOWELL         CLEAR     56  17  22 NE9       30.13S

CITY           SKY/WX    TMP DP  RH WIND       PRES   REMARKS
JACKSON        PTCLDY    59  25  27 NE12      30.09R
LAMBERTVILLE   MOCLDY    59  19  21 E8        30.10S
LANSING        CLEAR     56  24  29 NE10      30.12S
LAPEER         FAIR      48  29  46 E6        30.18R
MASON          PTCLDY    56  23  28 NE10      30.11S
MONROE         PTCLDY    57  23  26 E9        30.09S
PONTIAC        PTCLDY    54  15  21 NE13      30.14R
PORT HOPE        N/A     42  34  73 N7        30.20R
PORT HURON     CLEAR     45  32  61 N7        30.19R
TRI CITIES     PTCLDY    47  38  71 NE12      30.19R
TROY           PTCLDY    56  26  31 NE13      30.16R
SAGINAW HB     PTCLDY    48  32  53 NE10      30.18R
$$
MIZ043>046-050>051-056>058-064>065-071>073-077>080-190200-
SOUTHWEST LOWER MICHIGAN

CITY           SKY/WX    TMP DP  RH WIND       PRES   REMARKS
BATTLE CREEK   CLEAR     64  28  25 E13       30.06S
BENTON HARBOR  PTCLDY    65  33  30 E14G21    30.00R
BIG RAPIDS     PTCLDY    56  20  24 E9        30.13R
COLDWATER      PTCLDY    62  35  36 E13       30.06R
FREMONT        FAIR      58  15  18 E15       30.08F
HOLLAND        CLEAR     60  25  26 E10       30.06S
GRAND RAPIDS   PTCLDY    57  22  25 NE16      30.09S
IONIA          FAIR      55  24  31 NE9       30.11S
KALAMAZOO      CLEAR     64  31  28 NE8       30.05S
LUDINGTON      CLEAR     64  30  28 SE10      30.07S
MARSHALL       PTCLDY    60  30  31 NE6       30.07R
MOUNT PLEASANT CLEAR     49  24  36 E8        30.17S
MUSKEGON       MOCLDY    60  20  21 E15       30.06F
SOUTH HAVEN    CLEAR     64  24  21 E8        30.02S
$$
MIZ016>042-190200-
NORTHERN LOWER MICHIGAN

CITY           SKY/WX    TMP DP  RH WIND       PRES   REMARKS
ALPENA         CLEAR     46  27  47 CALM      30.22R
BEAVER ISLAND  CLEAR     48  24  38 NE5       30.18S
BELLAIRE       CLEAR     57  18  21 NE10      30.16R
CADILLAC       CLEAR     53  27  36 SE12      30.14R
CHARLEVOIX     CLEAR     52  25  34 E9        30.20R
FRANKFORT      CLEAR     57  20  24 E7        30.10S
GAYLORD        CLEAR     51  19  28 NE8       30.18R
GRAYLING       CLEAR     51  20  28 E8        30.18R
HARBOR SPRINGS CLEAR     51  24  34 NE8       30.19R
HOUGHTON LAKE  CLEAR     51  25  36 SE8       30.17R
MANISTEE       CLEAR     55  27  33 E10       30.10R
OSCODA         CLEAR     46  31  56 E5        30.21R
PELLSTON       CLEAR     51  24  34 E6        30.20R
ROGERS CITY    CLEAR     42  32  65 CALM      30.22R
TRAVERSE CITY  PTCLDY    43  32  65 W6        30.13R
$$
MIZ007>008-015-190200-
EASTERN UPPER MICHIGAN

CITY           SKY/WX    TMP DP  RH WIND       PRES   REMARKS
KINROSS        CLEAR     41  28  60 N5        30.22R
MACKINAC ISLAN CLEAR     48  25  40 E5        30.20S
NEWBERRY       CLEAR     40  30  68 N7        30.21S WCI  35
S. S. MARIE    CLEAR     44  26  49 NW5       30.21S
$$
MIZ004>006-011>014-085-190200-
CENTRAL UPPER MICHIGAN

CITY           SKY/WX    TMP DP  RH WIND       PRES   REMARKS
MANISTIQUE     CLEAR     46  33  58 N8        30.18S
ESCANABA       CLEAR     50  28  43 NE7       30.15S
MENOMINEE      CLEAR     50  25  37 E16       30.13S
SAWYER-GWINN   CLEAR     37  28  70 NE7       30.18F WCI  32
$$
MIZ001>003-009>011-084-190200-
WESTERN UPPER MICHIGAN

CITY           SKY/WX    TMP DP  RH WIND       PRES   REMARKS
IRON MOUNTAIN  CLEAR     53  20  27 SE8       30.11F
HOUGHTON       CLEAR     37  28  70 E12       30.17F WCI  29
COPPER HARBOR    N/A     38  29  70 S3        30.21S
IRONWOOD       PTCLDY    61  21  21 SE10      30.02F
$$

ABBREVIATIONS USED IN REMARKS
   TC - TEMPERATURE IN CELSIUS
  WCI - WIND CHILL INDEX
   HX - HEAT INDEX
  VSB - VISIBILITY



USA.gov is the U.S. government's official web portal to all federal, state and local government web resources and services.